Weather WX

World > North America > United States > Oregon

Rose Lodge, Oregon Regional Weather

Lat: 45.02N, Lon: 123.88W
Wx Zone: ORZ004
Feedback

Rose Lodge, OR Regional Weather

Expires:201906250200;;028597
ASUS46 KPQR 250110
RWROR 

OREGON REGIONAL WEATHER ROUNDUP
NATIONAL WEATHER SERVICE PORTLAND OR
600 PM PDT MON JUN 24 2019

NOTE: "FAIR" INDICATES FEW OR NO CLOUDS BELOW 12,000 FEET WITH
NO SIGNIFICANT WEATHER AND/OR OBSTRUCTIONS TO VISIBILITY.


ORZ001>013-250200-
NORTHWEST OREGON

  
CITY           SKY/WX    TMP DP  RH WIND       PRES   REMARKS
ASTORIA        MOSUNNY   62  48  60 NW14      29.98F                  
TILLAMOOK      PTSUNNY   63  46  55 CALM      29.99F                  
PORTLAND       PTSUNNY   71  45  39 NW5       29.95F                  
VANCOUVER WA   MOSUNNY   70  44  39 N5        29.94F                  
SCAPPOOSE      MOSUNNY   69  45  41 N9        29.94F                  
HILLSBORO      MOSUNNY   71  48  43 NE7       29.94F                  
AURORA         MOSUNNY   73  44  35 NE7       29.95F                  
MCMINNVILLE    MOSUNNY   73  46  38 NE3       29.93F                  
SALEM          MOSUNNY   73  43  33 VRB3      29.92F                  
CORVALLIS      MOSUNNY   75  46  35 E8        29.93F                  
EUGENE         PTSUNNY   77  44  30 NW7       29.92F                  
$$


SKY/WX - Weather  TMP - Temperature  DP - Dew Point  RH - Relative Humidity
WIND - Wind Direction/Speed PRES - Barometric Pressure VSB - Visibility
WCI - Wind Chill Index E13G22 Wind - East Wind 13 mph/Gusts of 22 mph